Regional Weather Roundup
Issued by NWS

Home | Current Version | Previous Version | Graphics & Text | Print | Product List | Glossary On
Versions: 1 2 3 4 5 6 7 8 9 10 11 12 13 14 15 16 17 18 19 20 21 22 23 24 25 26 27 28 29 30 31 32 33 34 35 36 37 38 39 40 41 42 43 44 45 46 47 48 49 50
453
ASUS45 KPSR 281210
RWRAZ

ARIZONA REGIONAL HOURLY WEATHER ROUNDUP
NATIONAL WEATHER SERVICE TUCSON AZ
500 AM MST WED JUN 28 2017

NOTE: FAIR INDICATES FEW OR NO CLOUDS BELOW 12,000 FEET WITH NO
SIGNIFICANT WEATHER AND/OR OBSTRUCTIONS TO VISIBILITY.

AZZ001>003-036-281300-
NORTHWEST ARIZONA

CITY           SKY/WX    TMP DP  RH WIND       PRES   REMARKS
BULLHEAD CITY  CLEAR     88  25  10 S7        29.67R
KINGMAN        CLEAR     73  20  13 SE12      29.86R
6HR MIN TEMP:  65; 6HR MAX TEMP:  77;

$$

AZZ004>008-015-016-018-281300-
NORTH CENTRAL ARIZONA

CITY           SKY/WX    TMP DP  RH WIND       PRES   REMARKS
GRAND CANYON   PTCLDY    38  15  39 E3        30.12S
6HR MIN TEMP:  38; 6HR MAX TEMP:  57;

PRESCOTT       CLEAR     64  18  17 S7        30.02R
6HR MIN TEMP:  63; 6HR MAX TEMP:  73;

FLAGSTAFF      PTCLDY    39  13  34 SW3       30.17R
6HR MIN TEMP:  39; 6HR MAX TEMP:  62;

PAYSON         SUNNY     61  21  21 CALM      30.10R
PAGE           CLEAR     73  19  13 SW5       29.88R
6HR MIN TEMP:  71; 6HR MAX TEMP:  87;

$$

AZZ009>014-017-281300-
NORTHEAST ARIZONA

CITY           SKY/WX    TMP DP  RH WIND       PRES   REMARKS
WINSLOW        CLEAR     64  20  18 SW13      30.00R
6HR MIN TEMP:  63; 6HR MAX TEMP:  75;

SAINT JOHNS    CLEAR     67  19  16 SW12      30.07R
6HR MIN TEMP:  64; 6HR MAX TEMP:  72;

WINDOW ROCK    CLEAR     56  17  21 NE6       30.13R
6HR MIN TEMP:  54; 6HR MAX TEMP:  68;

SHOW LOW       CLEAR     59  19  21 S10       30.16R
$$

AZZ023-281300-
GREATER PHOENIX AREA

CITY           SKY/WX    TMP DP  RH WIND       PRES   REMARKS
PHOENIX        PTCLDY    85  41  21 E6        29.76R
6HR MIN TEMP:  85; 6HR MAX TEMP:  99;

BUCKEYE        MOSUNNY   75  41  29 N3        29.76R
LUKE AFB       CLEAR     86  46  24 SE3       29.75R
6HR MIN TEMP:  84; 6HR MAX TEMP:  96;

DEER VALLEY    CLEAR     82  45  27 E3        29.79R
6HR MIN TEMP:  79; 6HR MAX TEMP:  94;

SCOTTSDALE     CLEAR     83  46  27 N5        29.80R
6HR MIN TEMP:  83; 6HR MAX TEMP:  95;

MESA-GATEWAY   CLEAR     77  36  22 E10       29.79S
$$

AZZ027-028-281300-
SOUTHWEST MARICOPA COUNTY AND PINAL COUNTY

CITY           SKY/WX    TMP DP  RH WIND       PRES   REMARKS
CASA GRANDE    CLEAR     77  48  35 E5        29.81R
6HR MIN TEMP:  77; 6HR MAX TEMP:  88;

$$

AZZ503-504-507>509-281300-
SOUTHEAST ARIZONA

CITY           SKY/WX    TMP DP  RH WIND       PRES   REMARKS
TUCSON         CLEAR     83  51  33 S7        29.93R
6HR MIN TEMP:  81; 6HR MAX TEMP:  91;

DAVIS-MONTHAN  CLEAR     77  42  28 S7        29.91R
6HR MIN TEMP:  77; 6HR MAX TEMP:  87;

NOGALES        CLEAR     68  47  46 CALM      30.03R
6HR MIN TEMP:  67; 6HR MAX TEMP:  78;

SIERRA VISTA   CLEAR     74  39  27 E5        30.08R
6HR MIN TEMP:  74; 6HR MAX TEMP:  81;

DOUGLAS        CLEAR     67  55  65 SE8       30.05R
6HR MIN TEMP:  67; 6HR MAX TEMP:  79;

SAFFORD        CLEAR     68  28  22 SE5       29.93R
6HR MIN TEMP:  67; 6HR MAX TEMP:  84; 6HR PCP: TRACE;

$$

AZZ020-021-025-026-031-281300-
SOUTHWEST ARIZONA

CITY           SKY/WX    TMP DP  RH WIND       PRES   REMARKS
YUMA           CLEAR     77  64  64 S3        29.70R
6HR MIN TEMP:  75; 6HR MAX TEMP:  89;

$$

CAZ031-033-041-043-047-048-061-281300-
SOUTHERN CALIFORNIA

CITY           SKY/WX    TMP DP  RH WIND       PRES   REMARKS
DOWNTOWN L.A.  CLEAR     63  59  87 CALM      29.85S
6HR MIN TEMP:  63; 6HR MAX TEMP:  66;

L.A. AIRPORT   PTCLDY    62  59  90 W6        29.86S
6HR MIN TEMP:  62; 6HR MAX TEMP:  65;

SAN DIEGO      CLOUDY    63  59  87 W3        29.89R
6HR MIN TEMP:  63; 6HR MAX TEMP:  65;

BURBANK        CLEAR     62  56  80 S3        29.86R
6HR MIN TEMP:  62; 6HR MAX TEMP:  70;

ONTARIO        CLEAR     62  51  67 CALM      29.86S
6HR MIN TEMP:  62; 6HR MAX TEMP:  73;

RIVERSIDE      CLEAR     63  52  67 CALM      29.87R
6HR MIN TEMP:  62; 6HR MAX TEMP:  72;

PALM SPRINGS   CLEAR     74  40  29 CALM      29.69R
6HR MIN TEMP:  74; 6HR MAX TEMP:  96;

EL CENTRO NAS  CLEAR     76  59  55 SE8       29.69R
6HR MIN TEMP:  73; 6HR MAX TEMP:  90;

IMPERIAL       CLEAR     75  58  55 SE6       29.67R
6HR MIN TEMP:  75; 6HR MAX TEMP:  88;

BLYTHE         CLEAR     78  28  16 S3        29.68R
6HR MIN TEMP:  77; 6HR MAX TEMP:  92;

NEEDLES        CLEAR     84  23  10 NW7       29.68R
6HR MIN TEMP:  83; 6HR MAX TEMP: 101;

$$

NVZ020-UTZ003-281300-
SOUTHERN NEVADA-UTAH

CITY           SKY/WX    TMP DP  RH WIND       PRES   REMARKS
LAS VEGAS      CLEAR     83  22  10 SW9       29.71R
6HR MIN TEMP:  83; 6HR MAX TEMP:  94;

SALT LAKE CITY CLEAR     67  39  35 SE7       29.87R
6HR MIN TEMP:  67; 6HR MAX TEMP:  74;

$$

NMZ009-TXZ055-281300-
NEW MEXICO-WEST TEXAS

CITY           SKY/WX    TMP DP  RH WIND       PRES   REMARKS
ALBUQUERQUE    CLEAR     66  31  27 SE12      30.04R
6HR MIN TEMP:  65; 6HR MAX TEMP:  76;

EL PASO        PTCLDY    76  53  44 S7        29.96R
6HR MIN TEMP:  76; 6HR MAX TEMP:  85;

$$


........................KEY........................
SKY/WX - SKY CONDITION/WEATHER
TMP    - TEMPERATURE IN FAHRENHEIT
DP     - DEWPOINT IN FAHRENHEIT
RH     - RELATIVE HUMIDITY IN PERCENT
WIND   - DIRECTION AND SPEED IN MILES PER HOUR (MPH)
VRB    - VARIABLE WIND DIRECTION
PRES   - MEAN SEA LEVEL PRESSURE IN INCHES OF MERCURY
         F - FALLING PRESSURE   R - RISING PRESSURE
         S - STEADY PRESSURE
VSB    - VISIBILITY IN MILES
HX     - HEAT INDEX IN FAHRENHEIT
WCI    - WIND CHILL INDEX IN FAHRENHEIT
TC     - TEMPERATURE IN CELSIUS WHICH IS ALSO KNOWN AS
         TEMPERATURE IN CENTIGRADE
AFB    - AIR FORCE BASE
         LUKE AFB IS LUKE AIR FORCE BASE
         DAVIS-MONTHAN IS DAVIS-MONTHAN AIR FORCE BASE
NAS    - NAVAL AIR STATION
         EL CENTRO NAS IS EL CENTRO NAVAL AIR STATION
N/A    - NOT AVAILABLE





USA.gov is the U.S. government's official web portal to all federal, state and local government web resources and services.